Weather History for El Paso, TX

Change the Weather History Date:

Sunday, June 22, 2014

  Actual Average Record
Temperature  
Mean Temperature 89 °F 83 °F  
Max Temperature 103 °F 97 °F 110 °F (1981)
Min Temperature 74 °F 70 °F 53 °F (1991)
Degree Days  
Heating Degree Days 0 0  
Month to date heating degree days 0 0  
Since 1 June heating degree days 0 0  
Since 1 July heating degree days 2049 2474  
Cooling Degree Days 24 18  
Month to date cooling degree days 493 357  
Year to date cooling degree days 920 734  
Since 1 June cooling degree days 493 357  
Growing Degree Days 38 (Base 50)    
Moisture  
Dew Point 39 °F    
Average Humidity 25    
Maximum Humidity 41    
Minimum Humidity 9    
Precipitation  
Precipitation 0.00 in 0.04 in 0.46 in (1944)
Month to date precipitation T 0.60  
Year to date precipitation 0.64 2.42  
Snow  
Snow 0.00 in - - ()
Month to date snowfall 0.0  
Since 1 June snowfall 0.0  
Since 1 July snowfall T  
Snow Depth 0.00 in    
Sea Level Pressure  
Sea Level Pressure 29.67 in    
Wind  
Wind Speed 11 mph (West)    
Max Wind Speed 23 mph    
Max Gust Speed 30 mph    
Visibility 10 miles    
Events      
T = Trace of Precipitation, MM = Missing Value Source: NWS Daily Summary

Daily Weather History Graph

Daily Weather History Graph

Search for Another Location

Airport:

Trip Planner

Search our weather history database for the weather conditions in past years. The results will help you decide how hot, cold, wet, or windy it might be!

Date:

Astronomy

Jun. 22, 2014 Rise Set
Actual Time 6:00 AM MDT 8:14 PM MDT
Civil Twilight 5:32 AM MDT 8:42 PM MDT
Nautical Twilight 4:57 AM MDT 9:17 PM MDT
Astronomical Twilight 4:20 AM MDT 9:54 PM MDT
Moon 2:37 AM MDT (6/22) 4:08 PM MDT (6/22)
Length of Visible Light 15h 10m
Length of Day
14h 13m
Waning Crescent, 20% of the Moon is Illuminated
Jun 22
Waning Crescent
Jun 27
New
Jul 5
First Quarter
Jul 12
Full
Jul 18
Last Quarter

Hourly Weather History & Observations

Time (MDT) Temp. Dew Point Humidity Pressure Visibility Wind Dir Wind Speed Gust Speed Precip Events Conditions
12:51 AM 82.0 °F 46.0 °F 28% 29.68 in 10.0 mi SSE 8.1 mph - N/A   Scattered Clouds
1:51 AM 80.1 °F 48.0 °F 32% 29.68 in 10.0 mi SSE 8.1 mph - N/A   Scattered Clouds
2:51 AM 78.1 °F 48.9 °F 36% 29.67 in 10.0 mi SSE 6.9 mph - N/A   Scattered Clouds
3:51 AM 77.0 °F 50.0 °F 39% 29.65 in 10.0 mi SE 5.8 mph - N/A   Scattered Clouds
4:51 AM 75.9 °F 50.0 °F 40% 29.66 in 10.0 mi South 5.8 mph - N/A   Mostly Cloudy
5:51 AM 75.9 °F 48.0 °F 37% 29.67 in 10.0 mi SSE 9.2 mph - N/A   Mostly Cloudy
6:51 AM 78.1 °F 42.1 °F 28% 29.68 in 10.0 mi SSW 8.1 mph - N/A   Mostly Cloudy
7:51 AM 81.0 °F 44.1 °F 27% 29.70 in 10.0 mi WNW 4.6 mph - N/A   Overcast
8:51 AM 82.9 °F 46.9 °F 28% 29.72 in 10.0 mi Variable 3.5 mph - N/A   Overcast
9:51 AM 88.0 °F 44.1 °F 22% 29.71 in 10.0 mi North 11.5 mph - N/A   Mostly Cloudy
10:51 AM 91.9 °F 42.1 °F 18% 29.71 in 10.0 mi NNE 12.7 mph - N/A   Scattered Clouds
11:51 AM 95.0 °F 44.6 °F 18% 29.96 in 10.0 mi North 15.0 mph 23.0 mph N/A   Scattered Clouds
12:51 PM 98.1 °F 37.0 °F 12% 29.68 in 10.0 mi North 4.6 mph 18.4 mph N/A   Scattered Clouds
1:51 PM 100.9 °F 37.0 °F 11% 29.65 in 10.0 mi NW 13.8 mph - N/A   Scattered Clouds
2:51 PM 100.9 °F 33.1 °F 9% 29.63 in 10.0 mi NW 11.5 mph 21.9 mph N/A   Scattered Clouds
3:51 PM 102.0 °F 32.0 °F 9% 29.62 in 10.0 mi WNW 11.5 mph 27.6 mph N/A   Scattered Clouds
4:51 PM 100.4 °F 30.2 °F 9% 29.85 in 10.0 mi West 11.5 mph 26.5 mph N/A   Scattered Clouds
5:51 PM 100.9 °F 33.1 °F 9% 29.57 in 10.0 mi West 17.3 mph - N/A   Scattered Clouds
6:51 PM 100.0 °F 33.1 °F 10% 29.57 in 10.0 mi West 17.3 mph 21.9 mph N/A   Scattered Clouds
7:51 PM 97.0 °F 30.9 °F 10% 29.59 in 10.0 mi West 21.9 mph 26.5 mph N/A   Partly Cloudy
8:51 PM 95.0 °F 30.9 °F 10% 29.61 in 10.0 mi West 19.6 mph 26.5 mph N/A   Partly Cloudy
9:51 PM 93.9 °F 33.1 °F 12% 29.63 in 10.0 mi WNW 13.8 mph 20.7 mph N/A   Clear
10:51 PM 91.9 °F 30.9 °F 11% 29.64 in 10.0 mi NW 16.1 mph - N/A   Clear
11:51 PM 91.9 °F 30.9 °F 11% 29.64 in 10.0 mi WNW 12.7 mph - N/A   Clear